Location: *
(43.0409°N, 0.1694°E)
Time: 21:27:56
(UTC+00:00)

FENGYUN 1C DEB - Pass Details

Date: 23 June 2024
Orbit: 854 x 917 km, 98.8° (Epoch: 17 July)

Event Time Altitude Azimuth Distance (km) Brightness Sun altitude
Rises 20:54:42 0° 222° (SW) 3,508 ? -10.8°
Reaches altitude 10° 20:58:59 10° 253° (WSW) 2,588 ? -11.4°
Maximum altitude 21:01:00 12° 273° (W) 2,465 ? -11.6°
Drops below altitude 10° 21:03:02 10° 294° (WNW) 2,604 ? -11.9°
Sets 21:07:25 0° 325° (NW) 3,561 ? -12.4°
